Year,Month,Day,Hour,Minute,Value (Times are PST for windgust in km/hr)
2013,05,14,00,00,19.30
2013,05,14,00,01,16.10
2013,05,14,00,02,16.10
2013,05,14,00,03,17.70
2013,05,14,00,04,17.70
2013,05,14,00,05,19.30
2013,05,14,00,06,22.50
2013,05,14,00,07,20.90
2013,05,14,00,08,19.30
2013,05,14,00,09,19.30
2013,05,14,00,10,22.50
2013,05,14,00,11,22.50
2013,05,14,00,12,22.50
2013,05,14,00,13,25.70
2013,05,14,00,14,24.20
2013,05,14,00,15,24.20
2013,05,14,00,16,22.50
2013,05,14,00,17,27.40
2013,05,14,00,18,22.50
2013,05,14,00,19,24.20
2013,05,14,00,20,24.20
2013,05,14,00,21,25.70
2013,05,14,00,22,25.70
2013,05,14,00,23,19.30
2013,05,14,00,24,24.20
2013,05,14,00,25,20.90
2013,05,14,00,26,22.50
2013,05,14,00,27,24.20
2013,05,14,00,28,24.20
2013,05,14,00,29,25.70
2013,05,14,00,30,25.70
2013,05,14,00,31,25.70
2013,05,14,00,32,22.50
2013,05,14,00,33,25.70
2013,05,14,00,34,29.00
2013,05,14,00,35,33.80
2013,05,14,00,36,32.20
2013,05,14,00,37,24.20
2013,05,14,00,38,32.20
2013,05,14,00,39,25.70
2013,05,14,00,40,24.20
2013,05,14,00,41,29.00
2013,05,14,00,42,24.20
2013,05,14,00,43,27.40
2013,05,14,00,44,29.00
2013,05,14,00,45,27.40
2013,05,14,00,46,27.40
2013,05,14,00,47,25.70
2013,05,14,00,48,24.20
2013,05,14,00,49,25.70
2013,05,14,00,50,30.60
2013,05,14,00,51,22.50
2013,05,14,00,52,24.20
2013,05,14,00,53,24.20
2013,05,14,00,54,25.70
2013,05,14,00,55,24.20
2013,05,14,00,56,24.20
2013,05,14,00,57,22.50
2013,05,14,00,58,22.50
2013,05,14,00,59,29.00
2013,05,14,01,00,20.90
2013,05,14,01,01,22.50
2013,05,14,01,02,25.70
2013,05,14,01,03,25.70
2013,05,14,01,04,25.70
2013,05,14,01,05,25.70
2013,05,14,01,06,24.20
2013,05,14,01,07,22.50
2013,05,14,01,08,27.40
2013,05,14,01,09,30.60
2013,05,14,01,10,27.40
2013,05,14,01,11,27.40
2013,05,14,01,12,29.00
2013,05,14,01,13,25.70
2013,05,14,01,14,29.00
2013,05,14,01,15,27.40
2013,05,14,01,16,25.70
2013,05,14,01,17,22.50
2013,05,14,01,18,22.50
2013,05,14,01,19,25.70
2013,05,14,01,20,27.40
2013,05,14,01,21,29.00
2013,05,14,01,22,27.40
2013,05,14,01,23,24.20
2013,05,14,01,24,25.70
2013,05,14,01,25,25.70
2013,05,14,01,26,24.20
2013,05,14,01,27,24.20
2013,05,14,01,28,29.00
2013,05,14,01,29,17.70
2013,05,14,01,30,24.20
2013,05,14,01,31,22.50
2013,05,14,01,32,24.20
2013,05,14,01,33,24.20
2013,05,14,01,34,25.70
2013,05,14,01,35,25.70
2013,05,14,01,36,24.20
2013,05,14,01,37,20.90
2013,05,14,01,38,27.40
2013,05,14,01,39,20.90
2013,05,14,01,40,19.30
2013,05,14,01,41,25.70
2013,05,14,01,42,25.70
2013,05,14,01,43,17.70
2013,05,14,01,44,22.50
2013,05,14,01,45,20.90
2013,05,14,01,46,12.90
2013,05,14,01,47,11.30
2013,05,14,01,48,12.90
2013,05,14,01,49,14.50
2013,05,14,01,50,17.70
2013,05,14,01,51,16.10
2013,05,14,01,52,9.60
2013,05,14,01,53,14.50
2013,05,14,01,54,11.30
2013,05,14,01,55,17.70
2013,05,14,01,56,11.30
2013,05,14,01,57,14.50
2013,05,14,01,58,14.50
2013,05,14,01,59,16.10
2013,05,14,02,00,19.30
2013,05,14,02,01,17.70
2013,05,14,02,02,12.90
2013,05,14,02,03,12.90
2013,05,14,02,04,11.30
2013,05,14,02,05,8.10
2013,05,14,02,06,12.90
2013,05,14,02,07,11.30
2013,05,14,02,08,9.60
2013,05,14,02,09,9.60
2013,05,14,02,10,9.60
2013,05,14,02,11,9.60
2013,05,14,02,12,12.90
2013,05,14,02,13,14.50
2013,05,14,02,14,8.10
2013,05,14,02,15,8.10
2013,05,14,02,16,11.30
2013,05,14,02,17,11.30
2013,05,14,02,18,17.70
2013,05,14,02,19,17.70
2013,05,14,02,20,11.30
2013,05,14,02,21,16.10
2013,05,14,02,22,16.10
2013,05,14,02,23,11.30
2013,05,14,02,24,12.90
2013,05,14,02,25,9.60
2013,05,14,02,26,12.90
2013,05,14,02,27,20.90
2013,05,14,02,28,16.10
2013,05,14,02,29,11.30
2013,05,14,02,30,16.10
2013,05,14,02,31,14.50
2013,05,14,02,32,16.10
2013,05,14,02,33,14.50
2013,05,14,02,34,14.50
2013,05,14,02,35,16.10
2013,05,14,02,36,17.70
2013,05,14,02,37,17.70
2013,05,14,02,38,9.60
2013,05,14,02,39,11.30
2013,05,14,02,40,9.60
2013,05,14,02,41,14.50
2013,05,14,02,42,11.30
2013,05,14,02,43,9.60
2013,05,14,02,44,8.10
2013,05,14,02,45,11.30
2013,05,14,02,46,8.10
2013,05,14,02,47,9.60
2013,05,14,02,48,6.40
2013,05,14,02,49,9.60
2013,05,14,02,50,11.30
2013,05,14,02,51,16.10
2013,05,14,02,52,11.30
2013,05,14,02,53,9.60
2013,05,14,02,54,9.60
2013,05,14,02,55,9.60
2013,05,14,02,56,9.60
2013,05,14,02,57,6.40
2013,05,14,02,58,11.30
2013,05,14,02,59,9.60
2013,05,14,03,00,9.60
2013,05,14,03,01,9.60
2013,05,14,03,02,11.30
2013,05,14,03,03,11.30
2013,05,14,03,04,11.30
2013,05,14,03,05,16.10
2013,05,14,03,06,12.90
2013,05,14,03,07,11.30
2013,05,14,03,08,9.60
2013,05,14,03,09,9.60
2013,05,14,03,10,16.10
2013,05,14,03,11,14.50
2013,05,14,03,12,17.70
2013,05,14,03,13,19.30
2013,05,14,03,14,17.70
2013,05,14,03,15,16.10
2013,05,14,03,16,20.90
2013,05,14,03,17,19.30
2013,05,14,03,18,22.50
2013,05,14,03,19,19.30
2013,05,14,03,20,16.10
2013,05,14,03,21,16.10
2013,05,14,03,22,19.30
2013,05,14,03,23,17.70
2013,05,14,03,24,16.10
2013,05,14,03,25,12.90
2013,05,14,03,26,16.10
2013,05,14,03,27,14.50
2013,05,14,03,28,16.10
2013,05,14,03,29,12.90
2013,05,14,03,30,11.30
2013,05,14,03,31,16.10
2013,05,14,03,32,11.30
2013,05,14,03,33,14.50
2013,05,14,03,34,8.10
2013,05,14,03,35,8.10
2013,05,14,03,36,14.50
2013,05,14,03,37,14.50
2013,05,14,03,38,11.30
2013,05,14,03,39,6.40
2013,05,14,03,40,6.40
2013,05,14,03,41,8.10
2013,05,14,03,42,8.10
2013,05,14,03,43,8.10
2013,05,14,03,44,8.10
2013,05,14,03,45,8.10
2013,05,14,03,46,8.10
2013,05,14,03,47,9.60
2013,05,14,03,48,11.30
2013,05,14,03,49,9.60
2013,05,14,03,50,8.10
2013,05,14,03,51,6.40
2013,05,14,03,52,9.60
2013,05,14,03,53,11.30
2013,05,14,03,54,8.10
2013,05,14,03,55,11.30
2013,05,14,03,56,9.60
2013,05,14,03,57,9.60
2013,05,14,03,58,8.10
2013,05,14,03,59,14.50
2013,05,14,04,00,11.30
2013,05,14,04,01,9.60
2013,05,14,04,02,8.10
2013,05,14,04,03,9.60
2013,05,14,04,04,14.50
2013,05,14,04,05,14.50
2013,05,14,04,06,9.60
2013,05,14,04,07,11.30
2013,05,14,04,08,9.60
2013,05,14,04,09,8.10
2013,05,14,04,10,9.60
2013,05,14,04,11,9.60
2013,05,14,04,12,8.10
2013,05,14,04,13,6.40
2013,05,14,04,14,6.40
2013,05,14,04,15,6.40
2013,05,14,04,16,6.40
2013,05,14,04,17,6.40
2013,05,14,04,18,6.40
2013,05,14,04,19,6.40
2013,05,14,04,20,6.40
2013,05,14,04,21,6.40
2013,05,14,04,22,6.40
2013,05,14,04,23,6.40
2013,05,14,04,24,6.40
2013,05,14,04,25,0.00
2013,05,14,04,26,0.00
2013,05,14,04,27,0.00
2013,05,14,04,28,0.00
2013,05,14,04,29,0.00
2013,05,14,04,30,0.00
2013,05,14,04,31,0.00
2013,05,14,04,32,0.00
2013,05,14,04,33,0.00
2013,05,14,04,34,0.00
2013,05,14,04,35,0.00
2013,05,14,04,36,0.00
2013,05,14,04,37,0.00
2013,05,14,04,38,0.00
2013,05,14,04,39,0.00
2013,05,14,04,40,0.00
2013,05,14,04,41,0.00
2013,05,14,04,42,0.00
2013,05,14,04,43,0.00
2013,05,14,04,44,0.00
2013,05,14,04,45,0.00
2013,05,14,04,46,0.00
2013,05,14,04,47,0.00
2013,05,14,04,48,0.00
2013,05,14,04,49,0.00
2013,05,14,04,50,0.00
2013,05,14,04,51,0.00
2013,05,14,04,52,0.00
2013,05,14,04,53,0.00
2013,05,14,04,54,0.00
2013,05,14,04,55,0.00
2013,05,14,04,56,0.00
2013,05,14,04,57,0.00
2013,05,14,04,58,0.00
2013,05,14,04,59,0.00
2013,05,14,05,00,0.00
2013,05,14,05,01,0.00
2013,05,14,05,02,0.00
2013,05,14,05,03,0.00
2013,05,14,05,04,0.00
2013,05,14,05,05,0.00
2013,05,14,05,06,0.00
2013,05,14,05,07,0.00
2013,05,14,05,08,0.00
2013,05,14,05,09,0.00
2013,05,14,05,10,0.00
2013,05,14,05,11,0.00
2013,05,14,05,12,0.00
2013,05,14,05,13,0.00
2013,05,14,05,14,0.00
2013,05,14,05,15,0.00
2013,05,14,05,16,0.00
2013,05,14,05,17,0.00
2013,05,14,05,18,0.00
2013,05,14,05,19,0.00
2013,05,14,05,20,0.00
2013,05,14,05,21,0.00
2013,05,14,05,22,0.00
2013,05,14,05,23,0.00
2013,05,14,05,24,0.00
2013,05,14,05,25,0.00
2013,05,14,05,26,0.00
2013,05,14,05,27,0.00
2013,05,14,05,28,0.00
2013,05,14,05,29,0.00
2013,05,14,05,30,0.00
2013,05,14,05,31,0.00
2013,05,14,05,32,0.00
2013,05,14,05,33,0.00
2013,05,14,05,34,0.00
2013,05,14,05,35,0.00
2013,05,14,05,36,0.00
2013,05,14,05,37,0.00
2013,05,14,05,38,0.00
2013,05,14,05,39,0.00
2013,05,14,05,40,0.00
2013,05,14,05,41,0.00
2013,05,14,05,42,0.00
2013,05,14,05,43,0.00
2013,05,14,05,44,0.00
2013,05,14,05,45,0.00
2013,05,14,05,46,0.00
2013,05,14,05,47,0.00
2013,05,14,05,48,0.00
2013,05,14,05,49,0.00
2013,05,14,05,50,0.00
2013,05,14,05,51,0.00
2013,05,14,05,52,0.00
2013,05,14,05,53,0.00
2013,05,14,05,54,0.00
2013,05,14,05,55,0.00
2013,05,14,05,56,0.00
2013,05,14,05,57,0.00
2013,05,14,05,58,0.00
2013,05,14,05,59,0.00
2013,05,14,06,00,0.00
2013,05,14,06,01,0.00
2013,05,14,06,02,0.00
2013,05,14,06,03,0.00
2013,05,14,06,04,0.00
2013,05,14,06,05,0.00
2013,05,14,06,06,0.00
2013,05,14,06,07,0.00
2013,05,14,06,08,0.00
2013,05,14,06,09,0.00
2013,05,14,06,10,0.00
2013,05,14,06,11,0.00
2013,05,14,06,12,0.00
2013,05,14,06,13,0.00
2013,05,14,06,14,0.00
2013,05,14,06,15,0.00
2013,05,14,06,16,0.00
2013,05,14,06,17,0.00
2013,05,14,06,18,0.00
2013,05,14,06,19,0.00
2013,05,14,06,20,0.00
2013,05,14,06,21,0.00
2013,05,14,06,22,0.00
2013,05,14,06,23,0.00
2013,05,14,06,24,0.00
2013,05,14,06,25,0.00
2013,05,14,06,26,0.00
2013,05,14,06,27,0.00
2013,05,14,06,28,0.00
2013,05,14,06,29,0.00
2013,05,14,06,30,0.00
2013,05,14,06,31,0.00
2013,05,14,06,32,0.00
2013,05,14,06,33,0.00
2013,05,14,06,34,0.00
2013,05,14,06,35,0.00
2013,05,14,06,36,0.00
2013,05,14,06,37,0.00
2013,05,14,06,38,0.00
2013,05,14,06,39,3.20
2013,05,14,06,40,4.80
2013,05,14,06,41,6.40
2013,05,14,06,42,4.80
2013,05,14,06,43,6.40
2013,05,14,06,44,6.40
2013,05,14,06,45,3.20
2013,05,14,06,46,1.60
2013,05,14,06,47,3.20
2013,05,14,06,48,3.20
2013,05,14,06,49,1.60
2013,05,14,06,50,4.80
2013,05,14,06,51,3.20
2013,05,14,06,52,4.80
2013,05,14,06,53,3.20
2013,05,14,06,54,4.80
2013,05,14,06,55,0.00
2013,05,14,06,56,4.80
2013,05,14,06,57,4.80
2013,05,14,06,58,4.80
2013,05,14,06,59,3.20
2013,05,14,07,00,3.20
2013,05,14,07,01,4.80
2013,05,14,07,02,3.20
2013,05,14,07,03,3.20
2013,05,14,07,04,4.80
2013,05,14,07,05,4.80
2013,05,14,07,06,4.80
2013,05,14,07,07,4.80
2013,05,14,07,08,3.20
2013,05,14,07,09,6.40
2013,05,14,07,10,4.80
2013,05,14,07,11,1.60
2013,05,14,07,12,1.60
2013,05,14,07,13,3.20
2013,05,14,07,14,4.80
2013,05,14,07,15,6.40
2013,05,14,07,16,4.80
2013,05,14,07,17,4.80
2013,05,14,07,18,4.80
2013,05,14,07,19,0.00
2013,05,14,07,20,0.00
2013,05,14,07,21,1.60
2013,05,14,07,22,6.40
2013,05,14,07,23,6.40
2013,05,14,07,24,3.20
2013,05,14,07,25,6.40
2013,05,14,07,26,4.80
2013,05,14,07,27,4.80
2013,05,14,07,28,8.10
2013,05,14,07,29,6.40
2013,05,14,07,30,4.80
2013,05,14,07,31,3.20
2013,05,14,07,32,0.00
2013,05,14,07,33,6.40
2013,05,14,07,34,0.00
2013,05,14,07,35,3.20
2013,05,14,07,36,1.60
2013,05,14,07,37,1.60
2013,05,14,07,38,4.80
2013,05,14,07,39,3.20
2013,05,14,07,40,1.60
2013,05,14,07,41,1.60
2013,05,14,07,42,1.60
2013,05,14,07,43,3.20
2013,05,14,07,44,4.80
2013,05,14,07,45,6.40
2013,05,14,07,46,4.80
2013,05,14,07,47,6.40
2013,05,14,07,48,4.80
2013,05,14,07,49,1.60
2013,05,14,07,50,4.80
2013,05,14,07,51,3.20
2013,05,14,07,52,0.00
2013,05,14,07,53,4.80
2013,05,14,07,54,4.80
2013,05,14,07,55,1.60
2013,05,14,07,56,6.40
2013,05,14,07,57,6.40
2013,05,14,07,58,3.20
2013,05,14,07,59,1.60
2013,05,14,08,00,4.80
2013,05,14,08,01,1.60
2013,05,14,08,02,0.00
2013,05,14,08,03,1.60
2013,05,14,08,04,0.00
2013,05,14,08,05,1.60
2013,05,14,08,06,3.20
2013,05,14,08,07,3.20
2013,05,14,08,08,1.60
2013,05,14,08,09,4.80
2013,05,14,08,10,3.20
2013,05,14,08,11,4.80
2013,05,14,08,12,3.20
2013,05,14,08,13,3.20
2013,05,14,08,14,6.40
2013,05,14,08,15,8.10
2013,05,14,08,16,9.60
2013,05,14,08,17,3.20
2013,05,14,08,18,6.40
2013,05,14,08,19,4.80
2013,05,14,08,20,4.80
2013,05,14,08,21,9.60
2013,05,14,08,22,8.10
2013,05,14,08,23,4.80
2013,05,14,08,24,6.40
2013,05,14,08,25,4.80
2013,05,14,08,26,4.80
2013,05,14,08,27,4.80
2013,05,14,08,28,6.40
2013,05,14,08,29,1.60
2013,05,14,08,30,1.60
2013,05,14,08,31,3.20
2013,05,14,08,32,4.80
2013,05,14,08,33,1.60
2013,05,14,08,34,8.10
2013,05,14,08,35,4.80
2013,05,14,08,36,1.60
2013,05,14,08,37,3.20
2013,05,14,08,38,4.80
2013,05,14,08,39,3.20
2013,05,14,08,40,6.40
2013,05,14,08,41,6.40
2013,05,14,08,42,8.10
2013,05,14,08,43,9.60
2013,05,14,08,44,6.40
2013,05,14,08,45,4.80
2013,05,14,08,46,1.60
2013,05,14,08,47,1.60
2013,05,14,08,48,3.20
2013,05,14,08,49,1.60
2013,05,14,08,50,1.60
2013,05,14,08,51,1.60
2013,05,14,08,52,4.80
2013,05,14,08,53,3.20
2013,05,14,08,54,8.10
2013,05,14,08,55,8.10
2013,05,14,08,56,3.20
2013,05,14,08,57,4.80
2013,05,14,08,58,11.30
2013,05,14,08,59,6.40
2013,05,14,09,00,9.60
2013,05,14,09,01,4.80
2013,05,14,09,02,4.80
2013,05,14,09,03,6.40
2013,05,14,09,04,9.60
2013,05,14,09,05,6.40
2013,05,14,09,06,3.20
2013,05,14,09,07,1.60
2013,05,14,09,08,3.20
2013,05,14,09,09,6.40
2013,05,14,09,10,9.60
2013,05,14,09,11,8.10
2013,05,14,09,12,6.40
2013,05,14,09,13,9.60
2013,05,14,09,14,4.80
2013,05,14,09,15,1.60
2013,05,14,09,16,3.20
2013,05,14,09,17,6.40
2013,05,14,09,18,6.40
2013,05,14,09,19,4.80
2013,05,14,09,20,4.80
2013,05,14,09,21,3.20
2013,05,14,09,22,9.60
2013,05,14,09,23,6.40
2013,05,14,09,24,4.80
2013,05,14,09,25,8.10
2013,05,14,09,26,8.10
2013,05,14,09,27,6.40
2013,05,14,09,28,11.30
2013,05,14,09,29,8.10
2013,05,14,09,30,6.40
2013,05,14,09,31,4.80
2013,05,14,09,32,8.10
2013,05,14,09,33,9.60
2013,05,14,09,34,8.10
2013,05,14,09,35,4.80
2013,05,14,09,36,1.60
2013,05,14,09,37,6.40
2013,05,14,09,38,6.40
2013,05,14,09,39,4.80
2013,05,14,09,40,8.10
2013,05,14,09,41,6.40
2013,05,14,09,42,8.10
2013,05,14,09,43,6.40
2013,05,14,09,44,9.60
2013,05,14,09,45,6.40
2013,05,14,09,46,6.40
2013,05,14,09,47,6.40
2013,05,14,09,48,9.60
2013,05,14,09,49,9.60
2013,05,14,09,50,8.10
2013,05,14,09,51,9.60
2013,05,14,09,52,4.80
2013,05,14,09,53,8.10
2013,05,14,09,54,11.30
2013,05,14,09,55,8.10
2013,05,14,09,56,8.10
2013,05,14,09,57,9.60
2013,05,14,09,58,9.60
2013,05,14,09,59,8.10
2013,05,14,10,00,8.10
2013,05,14,10,01,9.60
2013,05,14,10,02,8.10
2013,05,14,10,03,6.40
2013,05,14,10,04,8.10
2013,05,14,10,05,8.10
2013,05,14,10,06,12.90
2013,05,14,10,07,12.90
2013,05,14,10,08,9.60
2013,05,14,10,09,9.60
2013,05,14,10,10,9.60
2013,05,14,10,11,9.60
2013,05,14,10,12,9.60
2013,05,14,10,13,9.60
2013,05,14,10,14,11.30
2013,05,14,10,15,9.60
2013,05,14,10,16,4.80
2013,05,14,10,17,4.80
2013,05,14,10,18,6.40
2013,05,14,10,19,6.40
2013,05,14,10,20,11.30
2013,05,14,10,21,9.60
2013,05,14,10,22,8.10
2013,05,14,10,23,6.40
2013,05,14,10,24,11.30
2013,05,14,10,25,8.10
2013,05,14,10,26,6.40
2013,05,14,10,27,9.60
2013,05,14,10,28,12.90
2013,05,14,10,29,11.30
2013,05,14,10,30,12.90
2013,05,14,10,31,9.60
2013,05,14,10,32,9.60
2013,05,14,10,33,9.60
2013,05,14,10,34,11.30
2013,05,14,10,35,11.30
2013,05,14,10,36,8.10
2013,05,14,10,37,9.60
2013,05,14,10,38,11.30
2013,05,14,10,39,11.30
2013,05,14,10,40,9.60
2013,05,14,10,41,11.30
2013,05,14,10,42,11.30
2013,05,14,10,43,9.60
2013,05,14,10,44,8.10
2013,05,14,10,45,9.60
2013,05,14,10,46,9.60
2013,05,14,10,47,14.50
2013,05,14,10,48,9.60
2013,05,14,10,49,11.30
2013,05,14,10,50,9.60
2013,05,14,10,51,11.30
2013,05,14,10,52,11.30
2013,05,14,10,53,11.30
2013,05,14,10,54,11.30
2013,05,14,10,55,8.10
2013,05,14,10,56,14.50
2013,05,14,10,57,14.50
2013,05,14,10,58,9.60
2013,05,14,10,59,14.50
2013,05,14,11,00,6.40
2013,05,14,11,01,8.10
2013,05,14,11,02,8.10
2013,05,14,11,03,11.30
2013,05,14,11,04,8.10
2013,05,14,11,05,8.10
2013,05,14,11,06,4.80
2013,05,14,11,07,9.60
2013,05,14,11,08,9.60
2013,05,14,11,09,11.30
2013,05,14,11,10,8.10
2013,05,14,11,11,6.40
2013,05,14,11,12,9.60
2013,05,14,11,13,11.30
2013,05,14,11,14,9.60
2013,05,14,11,15,11.30
2013,05,14,11,16,11.30
2013,05,14,11,17,9.60
2013,05,14,11,18,9.60
2013,05,14,11,19,11.30
2013,05,14,11,20,11.30
2013,05,14,11,21,9.60
2013,05,14,11,22,11.30
2013,05,14,11,23,14.50
2013,05,14,11,24,12.90
2013,05,14,11,25,9.60
2013,05,14,11,26,8.10
2013,05,14,11,27,8.10
2013,05,14,11,28,8.10
2013,05,14,11,29,6.40
2013,05,14,11,30,11.30
2013,05,14,11,31,11.30
2013,05,14,11,32,8.10
2013,05,14,11,33,12.90
2013,05,14,11,34,9.60
2013,05,14,11,35,8.10
2013,05,14,11,36,14.50
2013,05,14,11,37,6.40
2013,05,14,11,38,8.10
2013,05,14,11,39,11.30
2013,05,14,11,40,11.30
2013,05,14,11,41,8.10
2013,05,14,11,42,11.30
2013,05,14,11,43,16.10
2013,05,14,11,44,11.30
2013,05,14,11,45,11.30
2013,05,14,11,46,11.30
2013,05,14,11,47,11.30
2013,05,14,11,48,11.30
2013,05,14,11,49,12.90
2013,05,14,11,50,9.60
2013,05,14,11,51,11.30
2013,05,14,11,52,14.50
2013,05,14,11,53,9.60
2013,05,14,11,54,11.30
2013,05,14,11,55,16.10
2013,05,14,11,56,9.60
2013,05,14,11,57,8.10
2013,05,14,11,58,8.10
2013,05,14,11,59,9.60
2013,05,14,12,00,16.10
2013,05,14,12,01,16.10
2013,05,14,12,02,14.50
2013,05,14,12,03,14.50
2013,05,14,12,04,11.30
2013,05,14,12,05,9.60
2013,05,14,12,06,8.10
2013,05,14,12,07,4.80
2013,05,14,12,08,6.40
2013,05,14,12,09,8.10
2013,05,14,12,10,11.30
2013,05,14,12,11,12.90
2013,05,14,12,12,14.50
2013,05,14,12,13,11.30
2013,05,14,12,14,11.30
2013,05,14,12,15,11.30
2013,05,14,12,16,11.30
2013,05,14,12,17,14.50
2013,05,14,12,18,8.10
2013,05,14,12,19,16.10
2013,05,14,12,20,11.30
2013,05,14,12,21,4.80
2013,05,14,12,22,11.30
2013,05,14,12,23,8.10
2013,05,14,12,24,9.60
2013,05,14,12,25,9.60
2013,05,14,12,26,14.50
2013,05,14,12,27,16.10
2013,05,14,12,28,14.50
2013,05,14,12,29,16.10
2013,05,14,12,30,17.70
2013,05,14,12,31,17.70
2013,05,14,12,32,17.70
2013,05,14,12,33,19.30
2013,05,14,12,34,16.10
2013,05,14,12,35,17.70
2013,05,14,12,36,16.10
2013,05,14,12,37,12.90
2013,05,14,12,38,16.10
2013,05,14,12,39,14.50
2013,05,14,12,40,11.30
2013,05,14,12,41,14.50
2013,05,14,12,42,11.30
2013,05,14,12,43,9.60
2013,05,14,12,44,11.30
2013,05,14,12,45,16.10
2013,05,14,12,46,16.10
2013,05,14,12,47,16.10
2013,05,14,12,48,19.30
2013,05,14,12,49,17.70
2013,05,14,12,50,19.30
2013,05,14,12,51,14.50
2013,05,14,12,52,14.50
2013,05,14,12,53,17.70
2013,05,14,12,54,14.50
2013,05,14,12,55,19.30
2013,05,14,12,56,16.10
2013,05,14,12,57,8.10
2013,05,14,12,58,11.30
2013,05,14,12,59,16.10
2013,05,14,13,00,11.30
2013,05,14,13,01,14.50
2013,05,14,13,02,16.10
2013,05,14,13,03,16.10
2013,05,14,13,04,8.10
2013,05,14,13,05,11.30
2013,05,14,13,06,9.60
2013,05,14,13,07,14.50
2013,05,14,13,08,11.30
2013,05,14,13,09,14.50
2013,05,14,13,10,19.30
2013,05,14,13,11,20.90
2013,05,14,13,12,16.10
2013,05,14,13,13,11.30
2013,05,14,13,14,17.70
2013,05,14,13,15,11.30
2013,05,14,13,16,12.90
2013,05,14,13,17,12.90
2013,05,14,13,18,8.10
2013,05,14,13,19,12.90
2013,05,14,13,20,8.10
2013,05,14,13,21,9.60
2013,05,14,13,22,8.10
2013,05,14,13,23,9.60
2013,05,14,13,24,11.30
2013,05,14,13,25,8.10
2013,05,14,13,26,16.10
2013,05,14,13,27,6.40
2013,05,14,13,28,11.30
2013,05,14,13,29,14.50
2013,05,14,13,30,12.90
2013,05,14,13,31,14.50
2013,05,14,13,32,14.50
2013,05,14,13,33,17.70
2013,05,14,13,34,20.90
2013,05,14,13,35,14.50
2013,05,14,13,36,11.30
2013,05,14,13,37,14.50
2013,05,14,13,38,6.40
2013,05,14,13,39,11.30
2013,05,14,13,40,16.10
2013,05,14,13,41,12.90
2013,05,14,13,42,14.50
2013,05,14,13,43,12.90
2013,05,14,13,44,16.10
2013,05,14,13,45,9.60
2013,05,14,13,46,12.90
2013,05,14,13,47,16.10
2013,05,14,13,48,16.10
2013,05,14,13,49,9.60
2013,05,14,13,50,16.10
2013,05,14,13,51,8.10
2013,05,14,13,52,9.60
2013,05,14,13,53,8.10
2013,05,14,13,54,4.80
2013,05,14,13,55,9.60
2013,05,14,13,56,14.50
2013,05,14,13,57,14.50
2013,05,14,13,58,19.30
2013,05,14,13,59,11.30
2013,05,14,14,00,6.40
2013,05,14,14,01,6.40
2013,05,14,14,02,11.30
2013,05,14,14,03,11.30
2013,05,14,14,04,11.30
2013,05,14,14,05,11.30
2013,05,14,14,06,6.40
2013,05,14,14,07,8.10
2013,05,14,14,08,14.50
2013,05,14,14,09,16.10
2013,05,14,14,10,8.10
2013,05,14,14,11,14.50
2013,05,14,14,12,9.60
2013,05,14,14,13,11.30
2013,05,14,14,14,6.40
2013,05,14,14,15,12.90
2013,05,14,14,16,9.60
2013,05,14,14,17,9.60
2013,05,14,14,18,8.10
2013,05,14,14,19,6.40
2013,05,14,14,20,14.50
2013,05,14,14,21,8.10
2013,05,14,14,22,6.40
2013,05,14,14,23,9.60
2013,05,14,14,24,6.40
2013,05,14,14,25,11.30
2013,05,14,14,26,9.60
2013,05,14,14,27,8.10
2013,05,14,14,28,6.40
2013,05,14,14,29,11.30
2013,05,14,14,30,9.60
2013,05,14,14,31,11.30
2013,05,14,14,32,9.60
2013,05,14,14,33,9.60
2013,05,14,14,34,9.60
2013,05,14,14,35,8.10
2013,05,14,14,36,9.60
2013,05,14,14,37,17.70
2013,05,14,14,38,17.70
2013,05,14,14,39,14.50
2013,05,14,14,40,9.60
2013,05,14,14,41,9.60
2013,05,14,14,42,14.50
2013,05,14,14,43,17.70
2013,05,14,14,44,19.30
2013,05,14,14,45,19.30
2013,05,14,14,46,17.70
2013,05,14,14,47,17.70
2013,05,14,14,48,11.30
2013,05,14,14,49,9.60
2013,05,14,14,50,11.30
2013,05,14,14,51,14.50
2013,05,14,14,52,19.30
2013,05,14,14,53,16.10
2013,05,14,14,54,12.90
2013,05,14,14,55,9.60
2013,05,14,14,56,17.70
2013,05,14,14,57,11.30
2013,05,14,14,58,11.30
2013,05,14,14,59,8.10
2013,05,14,15,00,14.50
2013,05,14,15,01,17.70
2013,05,14,15,02,17.70
2013,05,14,15,03,16.10
2013,05,14,15,04,16.10
2013,05,14,15,05,17.70
2013,05,14,15,06,11.30
2013,05,14,15,07,9.60
2013,05,14,15,08,8.10
2013,05,14,15,09,9.60
2013,05,14,15,10,9.60
2013,05,14,15,11,8.10
2013,05,14,15,12,8.10
2013,05,14,15,13,11.30
2013,05,14,15,14,12.90
2013,05,14,15,15,16.10
2013,05,14,15,16,14.50
2013,05,14,15,17,16.10
2013,05,14,15,18,16.10
2013,05,14,15,19,14.50
2013,05,14,15,20,14.50
2013,05,14,15,21,9.60
2013,05,14,15,22,16.10
2013,05,14,15,23,11.30
2013,05,14,15,24,8.10
2013,05,14,15,25,19.30
2013,05,14,15,26,14.50
2013,05,14,15,27,16.10
2013,05,14,15,28,11.30
2013,05,14,15,29,8.10
2013,05,14,15,30,9.60
2013,05,14,15,31,16.10
2013,05,14,15,32,14.50
2013,05,14,15,33,16.10
2013,05,14,15,34,17.70
2013,05,14,15,35,17.70
2013,05,14,15,36,17.70
2013,05,14,15,37,14.50
2013,05,14,15,38,11.30
2013,05,14,15,39,11.30
2013,05,14,15,40,14.50
2013,05,14,15,41,16.10
2013,05,14,15,42,20.90
2013,05,14,15,43,14.50
2013,05,14,15,44,16.10
2013,05,14,15,45,11.30
2013,05,14,15,46,19.30
2013,05,14,15,47,11.30
2013,05,14,15,48,14.50
2013,05,14,15,49,12.90
2013,05,14,15,50,16.10
2013,05,14,15,51,14.50
2013,05,14,15,52,11.30
2013,05,14,15,53,17.70
2013,05,14,15,54,14.50
2013,05,14,15,55,9.60
2013,05,14,15,56,16.10
2013,05,14,15,57,14.50
2013,05,14,15,58,17.70
2013,05,14,15,59,14.50
2013,05,14,16,00,9.60
2013,05,14,16,01,19.30
2013,05,14,16,02,19.30
2013,05,14,16,03,9.60
2013,05,14,16,04,19.30
2013,05,14,16,05,17.70
2013,05,14,16,06,11.30
2013,05,14,16,07,14.50
2013,05,14,16,08,16.10
2013,05,14,16,09,14.50
2013,05,14,16,10,19.30
2013,05,14,16,11,17.70
2013,05,14,16,12,11.30
2013,05,14,16,13,17.70
2013,05,14,16,14,17.70
2013,05,14,16,15,11.30
2013,05,14,16,16,9.60
2013,05,14,16,17,16.10
2013,05,14,16,18,17.70
2013,05,14,16,19,17.70
2013,05,14,16,20,11.30
2013,05,14,16,21,11.30
2013,05,14,16,22,6.40
2013,05,14,16,23,9.60
2013,05,14,16,24,11.30
2013,05,14,16,25,8.10
2013,05,14,16,26,17.70
2013,05,14,16,27,14.50
2013,05,14,16,28,14.50
2013,05,14,16,29,11.30
2013,05,14,16,30,14.50
2013,05,14,16,31,16.10
2013,05,14,16,32,14.50
2013,05,14,16,33,14.50
2013,05,14,16,34,11.30
2013,05,14,16,35,16.10
2013,05,14,16,36,24.20
2013,05,14,16,37,19.30
2013,05,14,16,38,9.60
2013,05,14,16,39,17.70
2013,05,14,16,40,16.10
2013,05,14,16,41,14.50
2013,05,14,16,42,14.50
2013,05,14,16,43,11.30
2013,05,14,16,44,9.60
2013,05,14,16,45,12.90
2013,05,14,16,46,16.10
2013,05,14,16,47,12.90
2013,05,14,16,48,19.30
2013,05,14,16,49,17.70
2013,05,14,16,50,12.90
2013,05,14,16,51,17.70
2013,05,14,16,52,16.10
2013,05,14,16,53,19.30
2013,05,14,16,54,20.90
2013,05,14,16,55,12.90
2013,05,14,16,56,12.90
2013,05,14,16,57,11.30
2013,05,14,16,58,16.10
2013,05,14,16,59,6.40
2013,05,14,17,00,8.10
2013,05,14,17,01,12.90
2013,05,14,17,02,8.10
2013,05,14,17,03,17.70
2013,05,14,17,04,17.70
2013,05,14,17,05,16.10
2013,05,14,17,06,6.40
2013,05,14,17,07,8.10
2013,05,14,17,08,11.30
2013,05,14,17,09,11.30
2013,05,14,17,10,8.10
2013,05,14,17,11,8.10
2013,05,14,17,12,9.60
2013,05,14,17,13,9.60
2013,05,14,17,14,3.20
2013,05,14,17,15,14.50
2013,05,14,17,16,20.90
2013,05,14,17,17,19.30
2013,05,14,17,18,14.50
2013,05,14,17,19,12.90
2013,05,14,17,20,8.10
2013,05,14,17,21,11.30
2013,05,14,17,22,11.30
2013,05,14,17,23,14.50
2013,05,14,17,24,16.10
2013,05,14,17,25,16.10
2013,05,14,17,26,14.50
2013,05,14,17,27,12.90
2013,05,14,17,28,12.90
2013,05,14,17,29,16.10
2013,05,14,17,30,17.70
2013,05,14,17,31,4.80
2013,05,14,17,32,8.10
2013,05,14,17,33,12.90
2013,05,14,17,34,11.30
2013,05,14,17,35,16.10
2013,05,14,17,36,6.40
2013,05,14,17,37,6.40
2013,05,14,17,38,16.10
2013,05,14,17,39,11.30
2013,05,14,17,40,16.10
2013,05,14,17,41,16.10
2013,05,14,17,42,9.60
2013,05,14,17,43,14.50